Preview of NWS' New Version of Forecast
This preview is not operational and should not be used for support decisions.

Regional Weather Roundup (RWR)

Issued by National Weather Service (NWS)

                            
000
ASUS46 KPQR 241810
RWROR 

OREGON REGIONAL WEATHER ROUNDUP
NATIONAL WEATHER SERVICE PORTLAND OR
1100 AM PDT SAT AUG 24 2019

NOTE: "FAIR" INDICATES FEW OR NO CLOUDS BELOW 12,000 FEET WITH
NO SIGNIFICANT WEATHER AND/OR OBSTRUCTIONS TO VISIBILITY.

ORZ001>013-241900-
NORTHWEST OREGON

  
CITY           SKY/WX    TMP DP  RH WIND       PRES   REMARKS
ASTORIA        CLOUDY    60  58  92 VRB7      30.01R FOG              
6HR MIN TEMP:  53; 6HR MAX TEMP:  66; 6HR PCP: TRACE;                

TILLAMOOK      MOSUNNY   70  55  60 CALM      30.04R                  
NEWPORT        SUNNY     63  54  72 SW3       30.06R                  
FLORENCE       FAIR      64  52  63 W6        30.03R                  
PORTLAND       PTSUNNY   70  46  42 N3        30.01R                  
6HR MIN TEMP:  59; 6HR MAX TEMP:  70;                                

VANCOUVER WA   PTSUNNY   69  46  43 S6        30.01R                  
6HR MIN TEMP:  55; 6HR MAX TEMP:  69;                                

SCAPPOOSE      SUNNY     71  49  45 SE6       30.00R                  
6HR MIN TEMP:  53; 6HR MAX TEMP:  71;                                

HILLSBORO      MOSUNNY   70  50  49 NE3       30.01R                  
6HR MIN TEMP:  51; 6HR MAX TEMP:  70;                                

AURORA         MOSUNNY   70  44  39 E5        30.02S                  
6HR MIN TEMP:  55; 6HR MAX TEMP:  71;                                

MCMINNVILLE    SUNNY     70  43  37 VRB5      30.01R                  
6HR MIN TEMP:  49; 6HR MAX TEMP:  70;                                

SALEM          SUNNY     71  46  40 CALM      30.00S                  
6HR MIN TEMP:  50; 6HR MAX TEMP:  71;                                

CORVALLIS      SUNNY     70  48  45 CALM      30.03R                  
EUGENE         MOSUNNY   72  52  49 VRB3      30.02S                  
6HR MIN TEMP:  50; 6HR MAX TEMP:  72;                                

CRESWELL       SUNNY     72  55  56 NW5       30.00S                  
$$

ORZ021-028-241900-
SOUTHWEST OREGON

  
CITY           SKY/WX    TMP DP  RH WIND       PRES   REMARKS
NORTH BEND     SUNNY     67  55  65 VRB3      30.04S                  
6HR MIN TEMP:  48; 6HR MAX TEMP:  67;                                

BROOKINGS      SUNNY     60  54  80 W6        29.98R                  
ROSEBURG       SUNNY     72  54  53 CALM      30.01R                  
6HR MIN TEMP:  57; 6HR MAX TEMP:  73;                                

SEXTON SUMMIT  SUNNY     68  47  46 N7        30.09R                  
6HR MIN TEMP:  59; 6HR MAX TEMP:  69;                                

GRANTS PASS    FAIR      73  52  46 CALM      30.01F                  
MEDFORD        SUNNY     75  49  39 W3        29.98F                  
6HR MIN TEMP:  56; 6HR MAX TEMP:  75;                                

$$

ORZ014>016-041-241900-
COLUMBIA GORGE

  
CITY           SKY/WX    TMP DP  RH WIND       PRES   REMARKS
TROUTDALE      CLOUDY    68  48  48 VRB3      30.01R                  
6HR MIN TEMP:  56; 6HR MAX TEMP:  68;                                

HOOD RIVER     SUNNY     72  37  28 NW15G23   29.94S                  
THE DALLES     SUNNY     78  45  30 NW16G25   29.90F                  
6HR MIN TEMP:  68; 6HR MAX TEMP:  78; 6HR PCP: TRACE;                

$$

ORZ029>031-041-044-049-050-061>064-502-503-505>511-241900-
EASTERN OREGON

  
CITY           SKY/WX    TMP DP  RH WIND       PRES   REMARKS
MADRAS         SUNNY     73  37  27 E3        30.00S                  
REDMOND        SUNNY     78  34  20 VRB5      30.00S                  
6HR MIN TEMP:  49; 6HR MAX TEMP:  78;                                

BEND           SUNNY     77  37  24 CALM      30.01S                  
PRINEVILLE     SUNNY     73  45  35 CALM      30.01S                  
KLAMATH FALLS  SUNNY     76  49  38 CALM      30.07F                  
6HR MIN TEMP:  46; 6HR MAX TEMP:  76;                                

LAKEVIEW       SUNNY     78  47  33 S8        30.11S                  
HERMISTON      MOSUNNY   83  44  25 W15G23    29.86S                  
6HR MIN TEMP:  71; 6HR MAX TEMP:  83;                                

PENDLETON      SUNNY     82  24  12 W18G26    29.89F                  
6HR MIN TEMP:  67; 6HR MAX TEMP:  82;                                

JOHN DAY       SUNNY     76  40  27 NW7       30.01S                  
MEACHAM        SUNNY     73  34  23 VRB6      30.00S                  
6HR MIN TEMP:  48; 6HR MAX TEMP:  73;                                

LA GRANDE      SUNNY     77  40  26 N7        29.96F                  
6HR MIN TEMP:  50; 6HR MAX TEMP:  77;                                

BAKER CITY     MOSUNNY   79  43  27 NW9       29.97S                  
6HR MIN TEMP:  48; 6HR MAX TEMP:  79;                                

BURNS          SUNNY     78  35  21 S5        30.04F                  
6HR MIN TEMP:  42; 6HR MAX TEMP:  78;                                

ROME             N/A     88  32  13 W9G21     29.99F                  
6HR MIN TEMP:  51; 6HR MAX TEMP:  89;                                

ONTARIO        SUNNY     82  45  27 VRB3      29.94S                  
6HR MIN TEMP:  54; 6HR MAX TEMP:  82;                                

$$